Wind_Speed
8 4 2 3 2 3 5 8 3 4 4 8 6 6 12 18 6 5 9 3 7 11 28 37 40 38 37 36 39 40 40 39 38 35 33 34 34 34 32 31 29 27 25 23 22 20 19 19 20
6 1 3 2 4 2 10 7 10 22 12 6 3 5 3 8 5 7 11 13 11 11 27 36 40 37 37 37 38 39 39 39 37 35 33 33 35 34 32 30 30 27 26 23 21 20 19 21 20
3 0 3 4 5 12 16 11 18 20 5 3 6 4 4 6 5 5 19 24 20 17 28 34 40 39 38 38 38 39 39 39 38 37 35 34 34 33 32 31 31 30 27 24 21 20 20 22 21
2 3 3 3 16 23 25 8 6 3 5 9 4 10 7 15 4 7 18 24 24 23 29 33 40 39 40 40 39 41 40 38 40 38 37 35 34 34 33 32 32 30 27 25 22 21 21 22 22
2 2 3 5 24 22 15 16 8 7 4 3 8 8 7 10 17 21 23 25 27 29 30 33 43 40 42 42 41 42 40 39 39 40 39 37 36 34 33 33 32 30 28 27 24 22 24 25 24
1 2 3 15 24 28 20 18 3 9 9 14 6 8 12 20 24 27 22 28 30 31 31 34 42 42 42 43 42 43 42 40 39 41 40 39 39 37 35 35 33 31 30 26 25 24 24 27 26
3 3 14 12 24 24 32 7 15 10 15 21 9 10 9 10 25 34 24 25 25 29 33 34 38 42 39 42 43 45 44 42 41 40 41 41 40 39 37 36 34 32 32 28 26 26 27 27 27
3 2 6 14 24 31 17 9 2 5 10 9 14 10 15 3 23 29 25 26 26 27 31 36 35 41 39 41 42 44 44 43 42 41 41 41 40 39 38 36 35 35 32 30 28 29 29 27 27
1 5 13 28 18 21 22 19 14 5 18 5 11 11 10 30 29 25 24 21 26 28 27 26 31 35 39 41 42 42 43 43 42 41 42 41 40 39 37 38 37 37 33 31 31 31 29 28 27
2 6 21 13 14 17 22 21 14 13 20 26 16 26 26 27 26 15 12 13 20 23 24 27 30 35 35 36 37 41 41 41 41 42 42 42 42 42 41 40 41 36 32 30 31 32 31 29 28
3 10 11 18 19 19 24 29 13 17 24 19 15 19 19 26 22 15 17 17 21 30 23 30 33 35 37 36 36 39 37 38 39 42 44 42 42 43 43 41 39 34 31 29 30 32 32 30 29
5 7 10 15 17 19 22 22 25 19 32 18 19 24 27 18 19 17 21 24 23 27 28 30 32 32 35 35 35 37 36 39 36 39 43 42 41 42 44 42 41 37 34 35 31 31 32 29 26
14 10 13 16 18 18 20 22 28 29 25 21 23 22 21 21 19 28 29 32 31 26 29 31 34 35 31 36 35 35 38 39 39 41 44 43 38 40 45 43 40 38 37 34 32 32 31 29 26
5 10 16 15 20 18 21 25 23 29 26 23 21 25 25 26 23 26 26 27 28 29 31 31 34 38 37 36 38 37 36 40 39 43 46 48 45 40 43 43 40 41 35 32 33 33 31 28 26
12 9 19 24 18 18 21 21 27 26 24 22 19 20 21 21 20 18 27 29 29 34 31 33 33 38 39 40 39 36 33 35 39 40 41 47 48 44 41 39 37 38 37 35 32 30 29 28 25
4 4 5 17 3 11 6 20 25 26 26 24 21 15 18 22 22 24 30 28 28 34 31 31 30 36 39 35 34 31 37 36 37 40 45 44 49 49 40 41 44 41 38 37 35 35 30 28 26
3 7 16 19 16 11 8 20 25 24 24 24 19 16 14 17 19 27 30 30 30 34 31 35 31 33 35 34 34 32 34 36 36 40 41 45 48 44 43 43 46 44 40 39 37 34 34 31 25
12 15 18 21 28 22 22 24 31 27 25 27 24 20 20 20 22 20 24 31 33 36 33 30 30 29 34 33 30 30 30 32 36 39 41 43 47 48 46 41 43 43 40 37 35 34 30 29 28
14 15 21 30 26 19 22 24 29 26 22 25 24 21 20 21 19 26 25 29 30 29 30 34 30 25 32 30 27 26 26 27 31 37 42 46 42 51 49 46 47 45 44 41 37 33 31 26 26
17 17 26 27 17 10 26 32 28 28 26 24 23 21 19 19 18 16 20 24 24 26 30 31 31 31 32 31 30 26 26 25 31 34 41 48 48 48 50 50 50 45 42 41 38 37 32 21 32
21 12 19 20 29 19 17 21 16 18 14 14 16 18 17 16 15 17 17 14 23 24 25 30 34 31 32 34 29 24 24 21 22 26 29 35 48 52 50 51 50 48 46 45 43 41 37 26 32
17 6 13 21 15 14 8 15 18 10 9 15 14 14 13 17 20 20 19 15 18 25 28 29 31 29 30 32 29 27 22 14 14 22 25 28 30 38 44 48 51 52 47 43 45 44 41 33 29
12 12 15 20 18 14 5 7 5 9 9 17 17 17 19 13 18 18 17 17 23 29 29 29 30 28 30 31 34 30 22 21 19 20 21 24 30 30 33 39 43 47 48 44 43 43 42 37 32
14 9 16 2 2 1 7 5 1 4 10 14 16 17 19 18 16 14 11 9 9 11 19 22 21 26 30 31 36 35 31 25 22 23 23 24 30 34 34 34 35 40 44 46 43 43 41 43 37
8 6 4 5 4 6 9 11 4 8 11 12 17 18 17 17 15 14 12 8 6 8 2 5 10 23 29 33 35 33 31 30 31 31 27 23 24 28 32 33 35 35 39 42 44 44 44 42 38
2 5 3 7 5 17 12 4 4 8 7 11 13 14 16 17 16 11 11 9 7 8 7 6 4 5 19 28 34 37 34 30 29 30 28 28 30 33 36 38 35 31 35 38 39 41 44 43 42
6 0 4 5 1 3 3 3 4 15 17 15 15 15 16 16 17 16 9 9 9 10 11 10 10 10 6 17 22 23 29 26 24 28 31 32 32 32 39 37 38 35 32 36 41 41 42 42 43
6 2 3 2 5 6 5 4 4 16 18 18 17 16 16 16 17 16 9 9 10 11 11 18 17 15 11 15 19 19 19 23 23 24 26 27 30 32 33 35 33 38 39 39 39 41 40 40 41
4 2 4 3 2 3 5 5 3 8 13 15 15 16 15 14 14 16 13 9 11 14 14 19 21 20 18 16 16 17 15 13 15 22 28 29 27 30 32 36 36 39 41 41 37 36 42 41 39
5 3 2 3 5 4 3 6 1 6 10 12 14 15 14 13 14 14 13 9 11 16 13 24 22 22 21 17 18 18 13 9 7 11 22 27 27 29 32 32 34 35 39 41 39 43 38 37 38
Wind_Direction
320 309 187 65 68 54 247 238 214 217 230 217 148 170 200 215 188 208 326 255 236 237 203 193 187 189 192 191 190 185 179 176 175 173 170 166 168 169 168 169 167 166 158 156 152 151 147 152 149
342 102 84 77 129 207 251 205 216 224 206 33 342 301 256 245 240 281 298 235 244 235 198 193 189 191 194 193 193 188 184 179 177 176 174 173 173 173 174 175 168 168 163 159 158 153 154 156 153
336 235 108 150 189 227 247 206 227 238 236 259 305 240 236 234 251 233 254 261 230 210 195 194 194 191 195 196 195 192 188 184 181 178 177 176 175 174 174 175 169 169 164 158 159 155 157 159 157
153 35 15 180 230 241 236 226 221 284 271 209 154 275 265 239 291 281 284 226 212 205 197 199 194 192 196 196 196 194 191 187 185 183 180 178 177 177 177 176 175 172 167 168 163 158 157 161 158
132 74 217 238 245 254 240 253 252 244 253 178 156 251 258 281 292 306 287 226 207 201 201 199 195 192 197 199 197 197 194 191 187 187 185 182 180 181 181 179 178 174 172 172 167 162 163 162 161
26 97 196 233 242 246 255 247 254 245 269 276 288 305 263 280 283 291 272 235 216 206 203 200 196 193 195 199 198 198 197 194 190 190 190 188 185 184 184 183 181 178 174 175 167 164 165 163 163
156 133 236 251 251 261 252 197 242 264 265 260 291 280 274 307 307 315 295 241 237 217 204 199 200 196 195 200 200 200 199 197 194 191 192 193 190 185 185 185 181 180 175 173 168 164 166 166 163
151 184 259 245 247 255 279 282 332 330 278 289 235 251 256 276 347 336 313 256 247 226 210 199 195 197 199 204 204 202 201 200 197 194 193 193 193 189 185 186 183 180 175 168 170 168 167 167 167
201 242 250 246 252 270 300 304 307 269 281 266 278 280 310 314 323 334 334 274 236 231 216 202 195 194 197 202 205 204 203 202 201 197 197 196 192 189 185 183 183 175 173 175 174 170 168 168 170
198 227 246 283 292 294 307 306 328 313 305 281 286 285 298 311 317 319 315 307 271 222 218 209 199 199 197 198 201 204 206 204 203 200 198 199 193 188 186 184 183 177 173 173 174 172 171 172 171
261 248 303 297 306 306 301 296 313 301 280 282 318 318 325 320 284 286 290 286 294 267 233 209 204 202 199 199 198 200 202 202 202 201 200 197 187 182 183 177 172 169 174 171 172 174 169 171 171
295 277 273 278 285 288 283 295 286 277 274 296 294 300 299 294 302 291 287 288 289 300 265 238 223 207 201 199 199 199 198 198 198 197 197 189 178 172 171 167 171 174 178 178 172 170 164 170 170
243 254 253 268 276 280 286 279 279 276 284 280 274 276 283 291 289 296 283 276 278 284 285 256 234 220 206 200 200 199 197 198 196 195 192 182 173 169 171 171 174 178 180 175 171 170 167 171 170
243 266 274 269 268 273 271 272 280 286 287 279 273 272 271 275 276 278 281 278 274 277 275 282 243 230 224 215 203 200 196 197 192 192 187 187 177 169 169 173 175 182 174 177 173 172 170 169 170
251 279 290 274 265 258 269 280 271 273 275 276 272 267 264 260 262 256 266 268 272 272 273 277 254 235 233 227 222 203 198 192 187 184 183 183 186 187 184 179 182 182 178 175 173 170 169 168 168
256 262 276 285 174 262 195 268 266 263 266 264 265 264 269 265 252 254 263 268 277 274 266 268 268 234 230 221 217 204 202 191 185 182 184 179 182 182 184 189 190 186 179 179 174 168 170 168 169
236 275 286 296 288 269 256 276 272 266 266 270 262 252 252 271 267 249 251 262 264 272 274 272 271 241 227 222 217 208 197 191 184 181 180 183 186 186 189 184 187 182 179 177 175 170 172 166 168
291 294 290 281 289 301 281 277 270 271 267 268 267 262 261 256 257 257 245 249 262 269 273 272 266 245 224 216 211 208 193 188 184 180 182 179 181 187 190 191 186 181 178 178 178 174 175 167 164
267 274 276 281 288 285 285 283 275 276 270 264 262 258 252 250 245 253 254 258 252 262 266 268 269 258 223 212 207 203 189 186 183 182 183 183 179 181 188 188 187 183 179 181 180 172 170 162 163
271 276 280 287 284 299 298 284 284 282 273 265 262 259 251 252 253 246 247 248 256 251 257 263 268 251 233 215 210 205 197 189 189 187 189 190 189 182 182 186 185 185 181 183 181 177 165 167 169
283 267 278 276 305 301 285 282 281 289 276 270 270 271 261 248 251 254 254 240 247 256 251 251 256 253 237 213 204 200 184 180 186 184 185 185 189 185 187 189 186 185 189 186 185 185 176 164 180
283 232 280 295 303 296 0 290 309 301 25 13 349 341 321 316 265 250 248 248 235 246 254 248 246 251 241 214 197 191 183 173 185 179 187 184 182 180 187 187 186 188 189 187 189 190 190 181 177
264 295 281 280 275 285 281 236 291 28 355 345 334 327 324 318 312 251 245 246 238 244 251 251 240 238 238 218 206 191 183 180 189 191 181 184 188 189 190 191 189 188 188 192 190 190 195 195 183
287 314 306 7 102 7 255 209 282 14 334 325 326 326 328 331 322 335 311 301 249 239 250 254 239 235 224 214 202 189 184 175 170 182 178 181 188 197 201 197 194 189 189 193 198 198 197 198 204
40 21 326 340 350 239 308 301 300 1 348 330 328 325 330 335 331 332 333 340 0 349 312 258 243 226 216 202 195 192 186 173 176 176 177 174 180 189 203 201 199 199 197 198 199 204 204 204 205
289 153 270 305 313 300 312 244 169 43 3 342 331 326 331 337 335 334 336 345 355 12 10 39 15 172 206 202 192 194 190 182 182 180 176 180 189 200 208 209 202 207 208 204 201 202 207 211 213
279 230 228 267 294 355 275 274 182 351 353 350 342 337 337 337 336 332 359 3 14 30 30 46 48 69 145 184 192 183 179 178 181 183 186 188 194 204 209 209 217 215 212 210 205 205 207 210 214
173 323 285 357 311 301 285 287 281 333 339 341 341 342 339 338 340 341 349 13 19 27 41 62 61 57 72 114 125 138 149 172 182 195 187 191 196 204 210 211 210 212 220 219 210 208 211 212 215
341 270 239 252 230 281 306 281 264 324 334 334 338 341 338 341 344 347 348 341 23 33 43 57 53 51 55 80 98 102 106 137 170 203 208 206 201 203 211 215 210 209 211 216 214 219 214 213 217
173 241 261 248 292 238 269 280 345 347 340 341 339 343 344 350 349 348 341 340 28 40 32 54 42 44 47 57 76 76 83 90 133 188 211 218 218 215 213 212 216 220 220 221 220 220 221 215 217
Height
782 781 784 783 802 812 801 780 767 762 760 741 738 743 742 735 741 756 713 709 711 710 713 718 721 727 732 736 740 742 743 744 746 752 758 760 766 769 774 775 779 784 788 790 793 796 798 801 803
782 784 783 794 808 810 770 773 765 744 733 737 738 737 738 736 726 720 712 711 710 710 710 716 720 726 731 734 738 740 743 743 746 749 755 760 763 768 772 777 777 783 787 791 793 795 798 800 803
782 784 788 796 811 787 755 754 744 736 739 740 744 737 734 729 718 713 710 709 709 708 710 711 717 722 728 732 735 739 742 743 745 749 753 757 762 767 771 776 777 782 785 790 793 795 798 801 803
783 785 790 798 782 755 740 738 743 741 738 738 740 745 729 714 712 710 709 704 706 707 706 710 711 719 724 728 732 736 739 742 744 748 751 755 761 765 769 773 778 780 784 788 792 795 797 800 803
784 790 795 796 765 743 739 738 743 742 740 736 736 732 727 710 711 710 709 705 702 703 705 705 711 712 720 725 729 733 737 740 741 746 750 754 757 764 768 771 776 778 783 786 789 793 796 799 803
786 791 800 777 758 740 735 734 743 740 739 736 739 737 726 712 712 710 707 707 700 699 701 704 708 710 715 721 725 729 734 737 739 742 748 752 754 758 765 770 773 777 781 786 788 792 795 797 800
788 796 773 770 751 741 720 738 737 743 740 729 736 736 721 711 713 710 711 707 705 700 698 700 706 710 712 717 721 725 729 734 736 739 744 749 752 755 761 767 771 776 778 784 788 790 794 797 799
788 789 779 764 752 738 734 740 736 744 734 728 728 725 720 712 710 708 705 705 704 702 700 697 702 706 711 715 718 722 726 730 733 737 740 745 751 755 756 765 769 774 777 781 785 789 792 797 798
781 783 774 753 757 751 744 742 741 741 735 734 727 720 718 715 711 710 707 705 702 700 701 700 699 701 705 710 715 719 723 727 731 734 738 743 747 753 757 759 768 771 775 778 782 786 791 795 799
787 786 765 763 759 758 749 752 756 753 741 726 733 718 719 717 713 711 708 707 707 697 697 698 697 699 701 706 710 715 720 724 728 731 735 740 743 748 752 758 763 767 773 778 782 785 789 794 798
787 783 777 769 767 766 763 753 760 757 740 735 739 729 726 720 710 710 707 704 705 698 696 694 694 696 698 700 704 708 714 719 723 726 731 735 738 743 748 755 759 767 773 777 780 784 787 792 795
796 786 782 773 769 766 763 756 751 754 729 741 738 732 723 722 718 710 703 700 700 697 695 694 695 694 694 695 699 702 706 712 717 721 725 730 733 737 741 748 753 760 768 773 777 785 784 792 795
790 782 776 771 766 762 759 756 747 735 733 736 733 726 722 715 714 707 703 697 694 693 692 691 692 691 690 692 693 696 700 704 709 714 719 722 729 732 737 743 749 758 762 771 776 782 784 790 794
778 777 770 764 758 758 757 750 747 732 733 728 726 719 713 710 708 704 701 694 690 688 686 686 688 687 688 690 687 690 694 697 702 706 712 716 722 727 733 740 745 755 761 771 775 779 784 789 793
774 775 762 750 751 751 746 752 741 727 719 716 715 711 702 697 697 695 692 691 687 682 681 679 679 681 682 684 686 687 689 692 696 702 707 711 716 722 727 736 741 752 759 768 775 780 784 789 793
772 772 770 736 742 740 747 743 724 714 709 706 704 704 698 690 685 687 685 683 681 677 675 672 672 674 675 677 680 685 683 691 692 696 702 707 711 721 727 734 743 748 755 766 772 776 785 787 792
772 769 757 744 723 734 737 730 709 701 700 696 694 692 689 684 679 675 675 674 674 672 669 668 667 667 669 672 677 680 682 686 687 689 695 703 709 714 725 733 738 747 756 762 770 773 781 782 793
762 762 753 747 716 728 726 718 698 692 693 686 683 683 680 676 670 668 665 665 666 665 664 662 661 661 664 668 673 675 678 682 683 685 690 698 705 713 724 731 739 744 751 760 767 772 781 783 789
764 761 755 727 720 726 717 702 683 683 685 676 671 670 668 665 658 660 659 657 655 657 657 657 657 657 659 664 668 670 672 678 681 683 687 694 704 709 718 730 737 743 745 754 762 770 776 785 787
754 756 741 720 713 716 706 689 677 670 668 662 661 659 659 655 655 650 650 649 649 647 649 650 651 651 653 658 663 665 670 673 678 680 685 689 698 704 712 720 730 737 743 751 758 764 772 780 785
743 747 737 733 706 709 703 686 671 655 655 653 655 654 652 650 647 644 643 642 640 641 641 642 645 645 647 650 658 662 666 670 676 679 685 688 692 696 706 713 720 728 738 744 750 758 764 771 781
749 731 727 726 731 719 705 698 660 656 665 668 664 662 660 655 641 635 634 633 634 633 634 635 638 641 642 644 652 656 659 665 670 676 683 687 693 697 703 709 713 721 730 738 745 753 759 766 772
743 729 731 723 724 724 705 707 674 674 679 680 673 667 662 654 643 629 627 625 625 625 626 628 630 634 636 639 645 649 656 661 668 675 680 686 689 698 703 708 712 715 722 731 740 748 755 762 766
733 738 728 743 755 765 701 694 678 690 690 685 678 672 661 652 645 637 628 622 622 620 620 622 624 627 631 634 638 642 648 658 665 672 679 684 688 694 701 707 711 715 719 724 734 743 749 754 760
761 779 775 773 781 734 678 684 682 694 691 689 682 674 664 657 647 639 635 630 625 622 617 616 619 621 624 627 632 638 644 651 658 665 673 681 687 690 697 700 707 714 718 722 728 737 744 749 755
763 766 739 736 733 702 680 700 681 689 689 689 685 676 668 660 654 642 638 633 630 624 620 615 615 617 622 624 626 631 639 646 653 660 666 674 682 687 693 697 703 713 718 719 725 731 737 743 750
760 758 734 723 777 756 715 679 683 680 686 686 684 677 671 663 657 647 639 637 633 627 624 619 617 617 621 622 625 632 636 644 651 656 663 670 677 682 688 693 699 703 715 720 720 726 732 737 743
742 729 730 760 749 755 720 702 706 697 695 691 687 681 675 668 661 652 643 639 637 631 626 622 623 623 624 622 626 632 637 642 650 657 662 668 673 680 686 690 695 699 704 717 718 721 726 732 736
748 742 726 724 728 724 725 719 717 706 704 699 694 687 680 672 666 658 651 645 639 633 632 627 627 627 629 628 631 631 637 642 648 655 661 666 671 675 681 687 692 698 703 710 711 721 721 725 732
740 727 722 727 734 721 716 710 710 708 706 702 698 691 684 677 670 664 656 649 640 637 637 627 629 631 632 634 630 633 639 644 649 655 660 663 668 673 677 684 690 692 698 705 706 713 718 721 725